Location: Unspecified
(0.0000°N, 0.0000°E)
Time: 14:23:28
(UTC+00:00)

deb Midas V - Pass Details

Date: 18 April 2026
Orbit: 2771 x 3389 km, 86.6° (Epoch: 16 May)

Event Time Altitude Azimuth Distance (km) Brightness Sun altitude
Rises 20:06:25 0° 335° (NNW) 7,352 ? -31.1°
Reaches altitude 10° 20:11:59 10° 323° (NW) 6,277 ? -32.5°
Maximum altitude 20:24:37 25° 275° (W) 4,914 ? -35.6°
Drops below altitude 10° 20:36:49 10° 224° (SW) 5,922 ? -38.5°
Sets 20:42:05 0° 211° (SSW) 6,859 ? -39.8°
